Sharm El Sheikh, Egypt

9:45 PM EET on May 23, 2018 (GMT +0200)
Sharm El Sheikh

Weather History for HESH - December, 2012

Change the Weather History Date:

Wednesday, December 19, 2012

  Actual Average Record
Temperature  
Mean Temperature 70 °F -  
Max Temperature 82 °F 72 °F - ()
Min Temperature 57 °F 56 °F - ()
Cooling Degree Days 4    
Growing Degree Days 20 (Base 50)    
Moisture  
Dew Point 42 °F    
Average Humidity 40    
Maximum Humidity 63    
Minimum Humidity 20    
Precipitation  
Precipitation 0.00 in 0.00 in - ()
Sea Level Pressure  
Sea Level Pressure 29.96 in    
Wind  
Wind Speed 4 mph ()    
Max Wind Speed 10 mph    
Max Gust Speed -    
T = Trace of Precipitation, MM = Missing Value Source: Averaged Metar Reports

Daily Weather History Graph

Daily Weather History Graph

Search for Another Location

Airport or City:

Astronomy

Dec. 19, 2012 Rise Set
Actual Time 6:28 AM EET 4:50 PM EET
Civil Twilight 6:02 AM EET 5:16 PM EET
Nautical Twilight 5:33 AM EET 5:45 PM EET
Astronomical Twilight 5:04 AM EET 6:14 PM EET
Moon 10:58 AM EET (12/19) 11:23 PM EET (12/19)
Length of Visible Light 11h 13m
Length of Day
10h 22m
Waxing Crescent, 42% of the Moon is Illuminated
Dec 19
Waxing Crescent
Dec 20
First Quarter
Dec 28
Full
Jan 5
Last Quarter
Jan 11
New

Hourly Weather History & Observations

Time (EET) Temp. Dew Point Humidity Pressure Visibility Wind Dir Wind Speed Gust Speed Precip Events Conditions
12:00 AM 60.8 °F 41.0 °F 48% 29.98 in - NNW 4.6 mph - N/A   Clear
1:00 AM 60.8 °F 41.0 °F 48% 30.01 in - NW 4.6 mph - N/A   Clear
2:00 AM 59.0 °F 41.0 °F 51% 29.98 in - NW 4.6 mph - N/A   Clear
3:00 AM 59.0 °F 42.8 °F 55% 29.98 in - WNW 4.6 mph - N/A   Clear
4:00 AM 59.0 °F 42.8 °F 55% 29.98 in - NW 4.6 mph - N/A   Clear
5:00 AM 57.2 °F 42.8 °F 59% 29.98 in - NW 3.5 mph - N/A   Clear
6:00 AM 59.0 °F 44.6 °F 59% 29.98 in - NW 4.6 mph - N/A   Clear
7:00 AM 57.2 °F 44.6 °F 63% 30.01 in - WNW 4.6 mph - N/A   Clear
8:00 AM 66.2 °F 46.4 °F 49% 30.01 in - Variable 2.3 mph - N/A   Clear
9:00 AM 75.2 °F 44.6 °F 34% 30.01 in - Variable 2.3 mph - N/A   Clear
10:00 AM 78.8 °F 44.6 °F 30% 30.04 in - Variable 3.5 mph - N/A   Clear
11:00 AM 82.4 °F 44.6 °F 26% 30.01 in - Variable 2.3 mph - N/A   Clear
12:00 PM 80.6 °F 46.4 °F 30% 29.98 in - South 6.9 mph - N/A   Clear
1:00 PM 78.8 °F 44.6 °F 30% 29.95 in - SSE 8.1 mph - N/A   Clear
2:00 PM 78.8 °F 42.8 °F 28% 29.95 in - ESE 10.4 mph - N/A   Clear
3:00 PM 80.6 °F 35.6 °F 20% 29.92 in - Variable 3.5 mph - N/A   Clear
4:00 PM 78.8 °F 33.8 °F 20% 29.92 in - Variable 1.2 mph - N/A   Clear
5:00 PM 73.4 °F 41.0 °F 31% 29.89 in - Variable 2.3 mph - N/A   Clear
6:00 PM 68.0 °F 42.8 °F 40% 29.92 in - Variable 2.3 mph - N/A   Clear
7:00 PM 66.2 °F 37.4 °F 35% 29.92 in - Calm Calm - N/A   Clear
8:00 PM 66.2 °F 30.2 °F 26% 29.95 in - Variable 2.3 mph - N/A   Clear
9:00 PM 69.8 °F 44.6 °F 40% 29.92 in - SSW 9.2 mph - N/A   Clear
10:00 PM 68.0 °F 42.8 °F 40% 29.92 in - SW 6.9 mph - N/A   Clear
11:00 PM 69.8 °F 41.0 °F 35% 29.92 in - SW 8.1 mph - N/A   Clear